Avondale, CO

10:56 PM MST on December 27, 2014 (GMT -0700)
Pueblo Memorial | Change Station
CLOSE
Current Station
Airport
Location: Pueblo,
Elevation: 4721 ft
Nearby Weather Stations

Elev 4721 ft 38.29 °N, 104.50 °W | Updated 1 hour ago

Clear
Clear
14 °F
Feels Like 8 °F
N
4
Wind Variable Wind from WNW

Today
High -- | Low -- °F
--% Chance of Precip.
Yesterday
High -- | Low -- °F
Precip. -- in
7:12 AM 4:44 PM
Waxing Crescent, 44% visible
Pressure 30.27 in
Visibility 10.0 miles
Clouds Clear
Windchill 8 °F
Dew Point 9 °F
Humidity 80%
Rainfall 0.00 in
Snow Depth Not available.
UV 0 out of 12
Pollen .10 out of 12
Air Quality Not available.
Flu Activity Not available.
METAR KPUB 280453Z AUTO 29003KT 10SM CLR M10/M13 A3011 RMK AO2 SLP251 T11001128

More Conditions Fewer Conditions

Pressure 30.27 in
Visibility 10.0 miles
Clouds Clear
Windchill 8 °F
Dew Point 9 °F
Humidity 80%
Rainfall 0.00 in
Snow Depth Not available.
UV 0 out of 12
Pollen .10 out of 12
Air Quality Not available.
Flu Activity Not available.
METAR KPUB 280453Z AUTO 29003KT 10SM CLR M10/M13 A3011 RMK AO2 SLP251 T11001128

More Conditions Fewer Conditions

10-Day Weather Forecast

Almanac

Astronomy

Dec. 27, 2014 Rise Set
Actual Time
Civil Twilight
Nautical Twilight
Astronomical Twilight
Moon
Length of Visible Light
Length of Day
Tomorrow will be .
, % of the Moon is Illuminated

Today's Extremes

State Highs State Lows

Community

WunderPhotos

Upload Photos

1,781,209 photos uploaded!

WunderBlogs® & News

Nearby

Air Quality

  Air Quality AQ Index Pollutant
Not available.

Snow Depth

Station Depth Elevation

Earthquake Activity

City Distance Mag. Time & Date
Minimum magnitude displayed is 2.5.

Coastal Water Temperatures

Place Temperature

Nearby Weather Stations